Retour au catalogue

STARLINK-35105

ActifCommunicationsSSO
NORAD 65543·PAYLOAD·🇺🇸 United States

Lancé Sep 6, 2025 depuis Cape Canaveral Space Force Station

Loading…

Prochains Passages (prochaines 24 heures)

TLE

FraisSource: CelesTrak SupGP

Époque: Sep 14, 2026, 20:51 UTC

1 65543C 25200Z   26257.86923611 -.00030836  00000+0 -95706-3 0  2578
2 65543  97.2851 324.3309 0001057 109.2345  42.7712 15.33460583    10

Suivez STARLINK-35105 en temps réel avec AllMySat

Download on the App Store